Omaha Millard, NE

2:03 PM CST on November 15, 2019 (GMT -0600)
Millard Municipal

Weather History for KMLE - October, 2019

Change the Weather History Date:

Monday, October 21, 2019

  Actual Average (KOFF) Record (KOFF)
Temperature  
Mean Temperature 49 °F -  
Max Temperature 55 °F 60 °F 84 °F (2003)
Min Temperature 43 °F 41 °F 28 °F (2006)
Degree Days  
Heating Degree Days 16    
Moisture  
Dew Point 42 °F    
Average Humidity 78    
Maximum Humidity 95    
Minimum Humidity 62    
Precipitation  
Precipitation 0.02 in - - ()
Sea Level Pressure  
Sea Level Pressure 29.50 in    
Wind  
Wind Speed 11 mph (West)    
Max Wind Speed 28 mph    
Max Gust Speed 38 mph    
Visibility 10 miles    
Events Rain    
Averages and records for this station are not official NWS values.
T = Trace of Precipitation, MM = Missing Value Source: NWS Daily Summary

Daily Weather History Graph

Daily Weather History Graph

Search for Another Location

Airport or City:

Astronomy

Oct. 21, 2019 Rise Set
Actual Time 7:42 AM CDT 6:34 PM CDT
Civil Twilight 7:14 AM CDT 7:02 PM CDT
Nautical Twilight 6:42 AM CDT 7:35 PM CDT
Astronomical Twilight 6:10 AM CDT 8:06 PM CDT
Moon No Moon Rise 3:03 PM CDT (10/21)
Length of Visible Light 11h 48m
Length of Day
10h 52m
Waning Gibbous, 48% of the Moon is Illuminated
Oct 21
Waning Gibbous
Oct 27
New
Nov 4
First Quarter
Nov 12
Full
Nov 19
Last Quarter

Hourly Weather History & Observations

Time (CDT) Temp. Windchill Dew Point Humidity Pressure Visibility Wind Dir Wind Speed Gust Speed Precip Events Conditions
12:15 AM 52.5 °F - 50.2 °F 92% 29.49 in 10.0 mi SE 4.6 mph - N/A   Clear
12:35 AM 52.0 °F - 50.0 °F 93% 29.51 in 10.0 mi SE 6.9 mph - N/A   Clear
12:55 AM 52.3 °F - 50.5 °F 94% 29.50 in 10.0 mi SSE 5.8 mph - N/A   Clear
1:15 AM 51.6 °F - 50.0 °F 94% 29.49 in 10.0 mi SSE 5.8 mph - N/A   Clear
1:35 AM 50.7 °F - 49.3 °F 95% 29.47 in 10.0 mi SSE 5.8 mph - N/A   Clear
1:55 AM 51.8 °F - 50.2 °F 94% 29.46 in 10.0 mi South 3.5 mph - N/A   Clear
2:15 AM 51.8 °F - 48.9 °F 90% 29.46 in 10.0 mi South 5.8 mph - N/A   Clear
2:35 AM 51.8 °F - 42.1 °F 69% 29.45 in 10.0 mi SSW 5.8 mph - N/A   Clear
2:55 AM 51.1 °F - 38.5 °F 62% 29.45 in 10.0 mi SW 6.9 mph - N/A   Clear
3:15 AM 49.8 °F - 39.2 °F 67% 29.44 in 10.0 mi SW 4.6 mph - N/A   Clear
3:35 AM 48.7 °F - 39.2 °F 70% 29.43 in 10.0 mi SW 5.8 mph - N/A   Clear
3:55 AM 47.3 °F - 38.7 °F 72% 29.42 in 10.0 mi SW 3.5 mph - N/A   Clear
4:15 AM 46.8 °F - 37.6 °F 70% 29.42 in 10.0 mi WSW 5.8 mph - N/A   Clear
4:35 AM 46.4 °F 42.9 °F 37.0 °F 70% 29.43 in 10.0 mi WSW 6.9 mph - N/A   Clear
4:55 AM 46.2 °F 42.2 °F 37.6 °F 72% 29.42 in 10.0 mi WSW 8.1 mph 16.1 mph N/A   Clear
5:15 AM 45.1 °F 39.9 °F 37.8 °F 75% 29.42 in 10.0 mi WSW 10.4 mph - N/A   Clear
5:35 AM 44.2 °F 40.3 °F 37.8 °F 78% 29.42 in 10.0 mi WSW 6.9 mph - N/A   Clear
5:55 AM 43.7 °F 40.3 °F 38.1 °F 81% 29.42 in 10.0 mi WSW 5.8 mph - N/A   Clear
6:15 AM 43.9 °F 40.5 °F 38.5 °F 81% 29.41 in 10.0 mi West 5.8 mph - N/A   Clear
6:35 AM 43.7 °F 38.6 °F 38.8 °F 83% 29.41 in 10.0 mi West 9.2 mph - N/A   Clear
6:55 AM 43.5 °F 38.3 °F 38.8 °F 84% 29.40 in 10.0 mi West 9.2 mph 16.1 mph N/A   Clear
7:15 AM 43.5 °F 38.3 °F 39.2 °F 85% 29.39 in 10.0 mi WSW 9.2 mph - N/A   Mostly Cloudy
7:35 AM 43.7 °F 37.7 °F 39.2 °F 84% 29.38 in 10.0 mi WSW 11.5 mph - N/A   Overcast
7:55 AM 44.2 °F 38.8 °F 39.4 °F 83% 29.37 in 10.0 mi WSW 10.4 mph 19.6 mph N/A   Overcast
8:15 AM 44.6 °F 39.2 °F 39.4 °F 82% 29.38 in 10.0 mi WSW 10.4 mph 19.6 mph N/A   Overcast
8:35 AM 44.8 °F 38.7 °F 38.8 °F 80% 29.39 in 10.0 mi West 12.7 mph 19.6 mph N/A   Overcast
8:55 AM 44.8 °F 38.3 °F 38.7 °F 79% 29.40 in 10.0 mi West 13.8 mph 18.4 mph N/A   Overcast
9:35 AM 45.0 °F 39.7 °F 38.7 °F 79% 29.40 in 10.0 mi West 10.4 mph - N/A   Overcast
9:55 AM 45.7 °F 39.5 °F 39.2 °F 78% 29.40 in 10.0 mi West 13.8 mph 21.9 mph N/A   Overcast
10:15 AM 46.6 °F - 39.6 °F 77% 29.41 in 10.0 mi West 12.7 mph 20.7 mph N/A   Overcast
10:35 AM 47.3 °F - 39.7 °F 75% 29.41 in 10.0 mi West 15.0 mph 20.7 mph N/A   Overcast
10:55 AM 47.7 °F - 40.3 °F 76% 29.41 in 10.0 mi West 16.1 mph - N/A   Overcast
11:15 AM 48.2 °F - 40.8 °F 76% 29.41 in 10.0 mi West 17.3 mph 20.7 mph N/A   Overcast
11:35 AM 48.9 °F - 41.5 °F 76% 29.42 in 10.0 mi West 15.0 mph 20.7 mph N/A   Overcast
11:55 AM 49.3 °F - 42.3 °F 77% 29.42 in 10.0 mi West 13.8 mph 23.0 mph N/A   Overcast
12:15 PM 50.0 °F - 42.6 °F 76% 29.42 in 10.0 mi West 13.8 mph 20.7 mph N/A   Overcast
12:55 PM 51.1 °F - 43.7 °F 76% 29.43 in 10.0 mi West 13.8 mph 23.0 mph N/A   Overcast
1:10 PM 51.8 °F - 44.4 °F 76% 29.43 in 10.0 mi West 15.0 mph 21.9 mph N/A   Overcast
1:35 PM 52.7 °F - 45.0 °F 75% 29.43 in 10.0 mi West 26.5 mph 32.2 mph N/A   Overcast
1:55 PM 55.0 °F - 43.9 °F 66% 29.44 in 10.0 mi WNW 19.6 mph 36.8 mph N/A   Overcast
2:15 PM 54.9 °F - 41.9 °F 62% 29.44 in 10.0 mi West 27.6 mph 35.7 mph N/A   Overcast
2:35 PM 52.2 °F - 41.5 °F 67% 29.45 in 10.0 mi West 21.9 mph 38.0 mph N/A   Overcast
2:55 PM 49.5 °F - 44.1 °F 82% 29.47 in 10.0 mi WNW 13.8 mph 25.3 mph 0.01 in Rain Light Rain
3:15 PM 50.2 °F - 45.5 °F 84% 29.49 in 10.0 mi West 12.7 mph 24.2 mph N/A   Overcast
3:35 PM 50.4 °F - 44.8 °F 81% 29.50 in 10.0 mi WNW 18.4 mph 24.2 mph N/A   Overcast
3:55 PM 51.3 °F - 44.1 °F 76% 29.50 in 10.0 mi West 16.1 mph 26.5 mph N/A   Overcast
4:15 PM 51.8 °F - 43.7 °F 74% 29.51 in 10.0 mi West 12.7 mph 23.0 mph N/A   Overcast
4:35 PM 50.9 °F - 43.7 °F 76% 29.52 in 7.0 mi West 18.4 mph 33.4 mph N/A Rain Light Rain
4:55 PM 50.0 °F - 44.2 °F 81% 29.53 in 10.0 mi West 13.8 mph 19.6 mph N/A   Overcast
5:15 PM 50.4 °F - 43.7 °F 78% 29.54 in 10.0 mi WNW 20.7 mph 32.2 mph N/A   Drizzle
5:35 PM 50.4 °F - 43.5 °F 77% 29.56 in 10.0 mi WNW 23.0 mph 31.1 mph N/A Rain Rain
6:15 PM 48.4 °F - 43.5 °F 83% 29.59 in 10.0 mi WNW 19.6 mph 29.9 mph 0.01 in Rain Light Rain
6:35 PM 48.7 °F - 43.3 °F 82% 29.61 in 10.0 mi WNW 16.1 mph 25.3 mph 0.01 in   Overcast
6:55 PM 49.1 °F - 43.3 °F 81% 29.62 in 10.0 mi WNW 19.6 mph 25.3 mph 0.01 in   Light Drizzle
7:15 PM 48.6 °F - 43.3 °F 82% 29.63 in 10.0 mi WNW 16.1 mph 27.6 mph N/A   Drizzle
7:35 PM 48.7 °F - 42.4 °F 79% 29.64 in 10.0 mi WNW 20.7 mph 32.2 mph N/A   Overcast
7:55 PM 48.9 °F - 42.1 °F 77% 29.65 in 10.0 mi WNW 21.9 mph 31.1 mph N/A   Overcast
8:15 PM 49.1 °F - 41.9 °F 76% 29.66 in 10.0 mi WNW 21.9 mph 32.2 mph N/A   Overcast
8:35 PM 48.7 °F - 41.2 °F 75% 29.67 in 10.0 mi WNW 24.2 mph 29.9 mph N/A   Overcast
8:55 PM 48.6 °F - 40.6 °F 74% 29.68 in 10.0 mi WNW 24.2 mph 36.8 mph N/A   Overcast
9:15 PM 48.4 °F - 40.5 °F 74% 29.69 in 10.0 mi WNW 23.0 mph 36.8 mph N/A   Overcast
9:35 PM 48.2 °F - 40.5 °F 75% 29.70 in 10.0 mi WNW 20.7 mph 33.4 mph N/A   Overcast
9:55 PM 48.2 °F - 40.5 °F 75% 29.71 in 10.0 mi WNW 21.9 mph 31.1 mph N/A   Overcast
10:15 PM 48.2 °F - 40.6 °F 75% 29.71 in 10.0 mi WNW 19.6 mph 29.9 mph N/A   Overcast
10:35 PM 48.2 °F - 40.6 °F 75% 29.73 in 10.0 mi WNW 19.6 mph 31.1 mph N/A   Overcast
10:55 PM 48.2 °F - 40.6 °F 75% 29.73 in 10.0 mi WNW 19.6 mph 29.9 mph N/A   Overcast
11:15 PM 48.2 °F - 40.5 °F 75% 29.74 in 10.0 mi WNW 21.9 mph 29.9 mph N/A   Overcast
11:35 PM 48.4 °F - 40.3 °F 74% 29.75 in 10.0 mi WNW 21.9 mph 31.1 mph N/A   Overcast
11:55 PM 48.9 °F - 39.7 °F 71% 29.76 in 10.0 mi WNW 16.1 mph 29.9 mph N/A   Overcast